User: anonymous   Login
Location: Unspecified
(0.0000°N, 0.0000°E)
Time: 12:43:57
(UTC+00:00)
Language:

Cosmos 1538 - Orbit

View from above orbital plane
View from above orbital plane
View from above satellite
View from above satellite

Ground track
Ground track

The orbit data is extracted from the following two-line orbital elements,

1 14759U 84019A   18113.92018358 -.00000001 +00000-0 +90458-5 0  9991
2 14759 074.0393 322.7475 0020216 119.3285 240.9889 14.33588544786381
Epoch (UTC): 23 April 2018 22:05:03
Eccentricity: 0.0020216
inclination: 74.0393°
perigee height: 765 km
apogee height: 794 km
right ascension of ascending node: 322.7475°
argument of perigee: 119.3285°
revolutions per day: 14.33588544
mean anomaly at epoch: 240.9889°
orbit number at epoch: 78638

The dashed part of the orbit path shows where the satellite is in the earth's shadow,  

DLR